Wind_Speed
37 38 39 39 40 40 41 41 42 42 42 42 42 42 43 44 46 47 48 50 51 51 50 50 50 50 50 50 50 50 49 49 49 48 49 49 48 47 47 45 44 43 42
38 38 39 39 39 40 41 41 42 42 43 42 42 41 43 44 46 48 48 49 49 50 50 50 50 50 50 50 51 51 51 51 50 50 49 49 48 48 47 45 44 45 44
36 37 38 38 39 39 40 41 41 41 42 42 41 42 43 44 46 47 49 49 48 48 48 49 50 50 50 51 51 51 51 51 51 50 50 50 49 49 47 46 45 45 44
35 36 36 37 38 38 39 39 39 40 41 42 42 42 43 44 45 46 47 48 47 47 48 48 48 49 49 50 50 51 51 51 51 52 51 51 50 50 50 47 46 45 45
34 35 36 36 37 37 37 37 39 40 41 41 41 42 43 43 44 43 44 45 45 45 45 46 47 47 48 48 49 50 51 50 50 51 51 51 51 51 50 48 46 45 45
33 34 34 35 35 36 36 37 38 39 40 41 41 41 42 42 41 42 44 44 44 43 44 44 45 45 46 47 48 48 49 49 50 50 51 51 50 50 50 49 47 46 45
33 33 33 33 33 32 34 34 35 37 38 40 40 41 41 40 40 41 42 43 43 41 41 41 41 42 43 45 46 48 48 50 50 51 51 50 49 49 50 50 48 47 46
31 31 30 30 30 32 33 33 34 35 36 37 38 39 38 39 39 39 39 40 41 40 40 40 40 41 42 44 45 46 48 49 50 51 50 49 49 50 50 50 49 48 47
29 29 29 29 30 30 31 32 33 33 34 34 35 36 36 37 38 38 38 39 39 39 39 40 40 40 41 42 44 45 46 49 49 50 50 49 49 49 49 50 50 49 48
28 28 28 28 29 30 31 31 31 31 32 32 32 33 36 37 37 37 37 37 38 38 38 38 40 40 41 42 44 45 46 48 48 49 49 49 48 48 49 49 50 51 50
27 27 27 27 29 30 30 30 30 29 29 30 31 32 34 35 35 35 36 35 35 36 37 38 39 40 41 42 43 43 44 44 45 46 47 47 47 48 49 49 50 50 49
27 27 27 27 28 28 28 28 28 27 28 29 29 29 31 32 33 33 33 33 34 35 36 37 38 40 41 41 42 42 42 42 42 43 45 46 47 47 48 48 48 48 47
26 26 26 26 26 26 27 26 26 26 26 27 26 27 27 29 30 32 32 33 33 34 35 37 38 39 40 40 41 42 42 41 42 42 43 45 46 47 47 47 47 46 46
24 24 25 26 26 25 26 26 26 25 25 26 25 25 24 25 27 30 31 32 32 34 35 35 36 37 37 38 39 39 40 40 41 42 42 43 44 45 46 46 47 47 46
24 24 25 25 25 25 25 25 25 24 24 24 24 23 24 25 26 27 29 29 29 30 32 33 34 35 35 36 36 36 36 37 37 38 39 40 40 41 42 44 45 45 45
25 25 25 25 24 24 24 24 23 23 23 23 23 23 24 25 26 26 27 28 28 28 30 31 32 32 33 34 34 34 33 33 34 35 35 35 35 36 38 39 41 41 41
25 25 26 25 25 24 24 23 22 22 22 22 22 23 24 25 25 26 28 28 29 29 29 28 29 30 31 32 32 31 31 32 32 33 33 33 33 34 35 37 39 39 38
25 25 26 26 24 23 23 22 22 22 22 22 22 23 24 24 25 26 28 28 28 27 28 28 28 28 29 30 29 30 30 30 30 31 32 32 33 34 35 35 36 38 39
24 24 25 25 23 22 22 22 22 22 23 22 22 23 24 23 24 25 27 27 26 27 27 27 27 26 27 28 28 28 28 29 29 31 32 32 33 34 35 35 35 35 36
24 25 24 24 23 22 22 21 21 22 22 23 23 23 23 24 24 25 26 25 25 25 25 26 26 26 26 26 26 26 27 27 28 29 30 32 33 33 34 34 34 34 33
25 25 24 23 23 23 22 21 21 21 22 22 22 23 24 24 24 24 23 22 21 22 22 24 25 25 26 26 26 26 26 27 27 27 28 30 30 30 31 31 31 31 31
25 25 23 22 22 23 22 21 21 21 21 21 21 21 22 22 22 22 22 20 19 20 21 23 24 25 25 26 26 26 26 26 26 25 25 25 26 27 27 27 27 28 28
24 24 22 21 21 21 21 21 21 21 21 20 20 20 20 20 21 21 20 21 21 21 22 23 23 23 24 24 25 27 27 26 25 24 24 23 24 24 24 24 25 26 26
23 23 22 21 20 20 21 21 21 20 20 19 19 19 19 19 19 19 20 20 21 22 21 21 21 21 23 23 24 25 25 24 24 24 22 21 21 21 21 21 22 22 23
23 22 21 20 19 19 20 20 21 20 20 19 19 18 17 17 17 17 19 20 21 21 20 20 20 20 21 21 22 21 22 22 22 21 20 20 19 19 20 20 20 20 21
22 21 20 19 19 19 19 19 19 19 19 18 17 17 17 16 16 17 17 18 18 19 19 19 19 19 19 20 19 19 19 19 19 19 18 17 17 17 17 17 18 19 19
Wind_Direction
264 265 265 266 267 267 265 266 267 267 264 262 261 261 262 261 261 260 259 260 260 261 259 257 256 254 253 252 253 254 255 256 257 258 259 258 259 260 262 265 266 267 268
265 268 269 268 268 268 267 266 267 267 264 261 262 263 263 264 262 262 261 261 261 260 259 258 257 256 255 253 252 253 254 255 257 259 259 257 258 259 261 264 267 267 267
267 270 271 269 268 270 269 268 268 268 264 262 262 263 265 265 263 262 262 262 262 260 259 258 257 257 256 255 255 255 256 255 257 259 260 259 259 259 260 262 265 266 267
269 270 272 270 270 271 271 269 268 267 264 261 261 263 264 266 264 264 263 262 261 261 259 257 257 256 256 255 256 256 257 258 259 260 261 261 262 261 261 262 263 265 265
270 272 273 272 271 272 272 270 270 267 265 262 263 264 264 266 265 264 262 261 261 260 259 259 258 256 256 256 256 257 257 258 259 260 261 261 261 261 262 262 263 263 264
271 273 274 273 273 273 272 271 273 269 264 263 264 265 265 266 264 264 263 260 259 257 257 258 258 258 258 257 257 256 257 258 258 259 260 260 260 260 261 262 262 262 262
273 273 273 274 273 275 275 275 274 270 266 265 265 266 266 265 265 264 263 259 257 256 255 256 257 258 259 259 258 257 257 258 257 258 260 259 259 260 261 262 262 262 262
276 275 274 275 274 277 278 277 274 272 269 267 267 267 265 265 265 263 262 258 255 255 254 256 257 258 259 259 258 258 258 257 258 258 260 260 260 260 261 262 262 262 262
279 277 276 276 278 279 280 280 276 273 271 270 270 267 265 265 264 262 260 257 255 255 253 256 257 258 259 259 260 260 260 260 259 259 260 260 260 260 260 261 261 262 263
278 277 277 277 279 281 283 283 280 274 272 271 271 269 267 265 263 260 259 258 256 254 254 257 258 258 260 261 263 263 262 261 260 260 260 259 260 260 261 261 261 262 263
277 276 278 279 280 281 282 284 282 275 273 273 273 270 267 265 261 260 259 259 257 256 256 258 260 260 262 262 263 263 262 261 260 260 258 258 260 260 260 260 261 261 262
277 277 280 282 283 282 282 284 283 276 272 273 274 273 269 264 260 260 261 261 260 259 259 260 261 263 263 265 265 263 263 262 261 261 260 259 260 260 260 259 260 261 260
279 278 280 281 284 283 281 283 284 277 272 272 273 272 268 264 261 261 263 263 262 261 260 262 263 264 264 265 265 264 263 263 262 261 262 261 260 260 259 258 259 260 259
280 279 279 280 283 284 283 284 284 276 271 271 272 269 265 264 265 265 266 265 264 264 264 264 265 266 266 266 266 264 263 264 264 264 264 262 261 261 260 259 259 259 259
282 281 280 282 284 284 283 283 282 276 272 272 271 268 265 266 265 266 267 267 268 268 267 266 265 264 265 266 266 265 264 264 265 265 264 262 262 261 260 259 259 259 259
283 282 280 282 284 285 283 281 279 276 272 271 271 270 269 268 266 268 269 270 271 272 271 268 265 264 264 265 266 266 264 263 264 265 265 263 263 262 261 260 258 257 258
286 284 283 283 284 284 283 282 279 275 271 269 270 269 268 267 268 269 271 271 272 274 273 269 266 264 263 264 265 263 264 264 265 266 265 263 264 263 260 260 258 257 257
288 286 284 283 282 282 282 282 281 277 273 272 273 271 266 268 270 272 273 273 272 272 270 268 268 267 267 266 263 263 263 266 267 267 268 267 264 262 261 260 260 258 256
289 288 285 283 281 280 281 282 281 278 276 275 275 271 265 267 271 274 275 274 272 271 269 269 269 267 267 265 263 266 268 269 267 268 267 265 264 263 261 261 260 260 258
291 290 288 283 280 281 282 281 280 277 276 275 274 273 271 270 270 272 273 273 273 272 272 271 270 269 268 268 268 268 269 268 268 268 268 266 264 263 262 261 260 260 258
291 292 290 284 278 278 281 281 281 278 275 275 276 275 273 271 270 270 272 273 274 273 272 272 273 273 272 271 269 270 271 270 269 270 271 267 264 262 261 260 259 258 257
291 292 290 285 280 279 281 281 278 277 277 278 278 276 273 273 270 269 269 271 273 275 275 276 275 275 275 273 270 270 272 273 271 271 272 270 265 264 263 261 259 260 258
291 291 288 284 280 279 280 281 279 278 278 277 276 274 275 274 270 270 270 271 271 275 277 278 277 275 273 274 274 273 272 271 271 273 273 271 268 265 264 263 263 262 260
290 291 287 282 280 280 280 281 280 279 278 276 275 275 275 274 274 272 273 274 274 275 277 277 275 274 274 275 275 273 271 270 271 271 271 269 268 266 264 264 265 263 261
290 291 288 283 281 282 284 282 280 277 276 276 276 274 273 273 275 276 278 277 277 278 278 278 276 274 274 276 276 274 272 271 271 270 268 267 266 265 264 263 264 262 259
289 289 288 285 282 283 285 282 278 275 274 273 270 270 271 271 275 279 283 283 283 282 281 281 280 278 276 277 275 270 269 269 269 268 268 265 264 264 265 264 263 263 260
Height
5694 5693 5693 5692 5692 5692 5692 5692 5692 5692 5691 5691 5692 5693 5693 5694 5695 5695 5696 5697 5697 5698 5699 5701 5703 5704 5706 5708 5710 5713 5715 5716 5718 5719 5722 5724 5725 5726 5727 5728 5728 5729 5729
5684 5683 5683 5682 5681 5681 5681 5681 5681 5680 5679 5680 5681 5682 5682 5682 5682 5682 5683 5683 5684 5685 5686 5688 5689 5691 5693 5695 5698 5700 5702 5705 5706 5708 5709 5712 5715 5715 5717 5717 5717 5718 5717
5674 5674 5673 5671 5671 5670 5670 5670 5670 5669 5668 5669 5670 5671 5671 5670 5670 5670 5671 5671 5671 5672 5673 5675 5677 5679 5681 5683 5686 5688 5690 5692 5694 5695 5697 5699 5702 5705 5706 5706 5707 5707 5706
5664 5664 5662 5661 5661 5660 5659 5659 5658 5657 5657 5657 5658 5659 5659 5659 5659 5658 5658 5658 5658 5660 5661 5663 5664 5666 5669 5671 5673 5676 5678 5680 5682 5683 5684 5686 5688 5690 5693 5695 5696 5696 5696
5654 5653 5652 5651 5650 5650 5649 5649 5647 5646 5646 5646 5646 5647 5647 5647 5646 5646 5646 5646 5646 5648 5649 5651 5653 5655 5657 5659 5661 5663 5665 5667 5669 5671 5672 5673 5675 5676 5679 5682 5684 5684 5684
5645 5644 5642 5641 5640 5640 5639 5638 5637 5635 5634 5634 5634 5634 5635 5634 5634 5634 5634 5634 5635 5637 5639 5641 5642 5644 5645 5647 5648 5650 5652 5654 5656 5658 5660 5661 5663 5665 5666 5668 5670 5672 5673
5636 5634 5633 5631 5631 5630 5630 5628 5626 5624 5623 5623 5623 5622 5622 5623 5623 5622 5622 5623 5625 5627 5629 5630 5632 5633 5634 5635 5637 5638 5640 5641 5643 5645 5647 5649 5651 5652 5654 5655 5656 5658 5661
5627 5626 5624 5623 5622 5621 5620 5618 5616 5614 5613 5612 5612 5611 5611 5611 5611 5611 5611 5612 5614 5616 5618 5619 5621 5623 5624 5625 5626 5627 5629 5630 5631 5633 5635 5637 5638 5640 5641 5642 5643 5645 5648
5619 5617 5616 5615 5613 5612 5610 5608 5606 5604 5603 5602 5601 5601 5600 5600 5600 5601 5601 5602 5603 5606 5608 5609 5611 5613 5614 5614 5615 5616 5617 5618 5619 5621 5623 5624 5626 5627 5628 5629 5630 5633 5635
5611 5609 5608 5606 5605 5603 5601 5599 5596 5594 5593 5592 5592 5591 5590 5589 5590 5590 5591 5592 5594 5596 5598 5599 5601 5602 5603 5604 5604 5605 5605 5606 5607 5609 5611 5612 5613 5614 5616 5617 5618 5619 5622
5602 5601 5599 5598 5596 5594 5592 5590 5587 5585 5585 5584 5583 5582 5580 5580 5580 5581 5582 5583 5585 5586 5588 5589 5591 5592 5593 5593 5593 5594 5594 5594 5595 5596 5598 5600 5601 5602 5604 5605 5606 5607 5609
5594 5593 5591 5590 5587 5585 5584 5581 5579 5577 5576 5575 5574 5573 5571 5571 5572 5573 5574 5574 5575 5576 5578 5579 5580 5581 5581 5581 5581 5582 5582 5582 5583 5584 5585 5587 5588 5590 5591 5592 5594 5595 5597
5587 5585 5583 5582 5580 5577 5575 5573 5571 5570 5568 5567 5566 5565 5564 5564 5564 5565 5566 5566 5566 5567 5568 5568 5569 5570 5570 5570 5570 5570 5571 5571 5571 5572 5574 5575 5576 5577 5579 5580 5581 5583 5585
5579 5577 5576 5574 5572 5570 5568 5566 5564 5562 5561 5560 5559 5558 5557 5557 5558 5558 5558 5557 5557 5558 5559 5559 5559 5560 5560 5560 5560 5560 5560 5560 5561 5561 5562 5564 5564 5566 5567 5568 5569 5571 5573
5572 5570 5569 5567 5565 5563 5561 5558 5556 5554 5553 5553 5552 5551 5551 5551 5551 5551 5551 5550 5550 5550 5550 5551 5551 5550 5550 5550 5550 5550 5550 5551 5551 5551 5552 5553 5553 5554 5555 5556 5558 5559 5561
5565 5563 5561 5559 5557 5555 5553 5551 5549 5547 5546 5546 5545 5545 5545 5544 5544 5544 5544 5543 5543 5543 5543 5542 5542 5542 5542 5542 5541 5541 5541 5542 5542 5542 5542 5542 5543 5543 5544 5545 5547 5548 5550
5558 5556 5554 5551 5550 5548 5545 5543 5542 5541 5539 5539 5538 5538 5538 5538 5538 5537 5537 5536 5536 5535 5534 5534 5534 5534 5534 5533 5533 5533 5533 5533 5533 5533 5533 5533 5533 5534 5534 5535 5537 5538 5539
5551 5548 5546 5544 5543 5541 5539 5537 5535 5534 5533 5532 5532 5532 5532 5532 5531 5531 5530 5529 5529 5528 5528 5527 5527 5526 5526 5525 5525 5525 5525 5525 5525 5525 5524 5524 5524 5525 5525 5526 5527 5528 5529
5544 5541 5539 5537 5535 5534 5532 5530 5529 5527 5526 5526 5526 5525 5526 5525 5525 5525 5523 5522 5522 5521 5521 5520 5520 5519 5519 5518 5517 5517 5517 5517 5517 5516 5516 5516 5516 5516 5516 5517 5518 5519 5519
5537 5534 5532 5530 5528 5527 5526 5524 5523 5521 5520 5520 5519 5519 5519 5518 5518 5518 5517 5516 5515 5515 5514 5513 5513 5512 5511 5511 5510 5510 5510 5510 5509 5508 5507 5507 5507 5506 5506 5507 5507 5508 5509
5530 5527 5524 5523 5521 5520 5519 5518 5516 5515 5514 5514 5513 5512 5512 5512 5511 5511 5510 5509 5509 5508 5507 5507 5506 5505 5504 5503 5503 5502 5502 5502 5501 5500 5499 5498 5497 5497 5497 5497 5498 5499 5500
5522 5520 5518 5516 5515 5514 5513 5511 5510 5509 5508 5507 5506 5506 5505 5505 5504 5504 5503 5503 5502 5502 5501 5500 5499 5498 5497 5496 5495 5494 5494 5493 5493 5492 5491 5490 5489 5489 5489 5489 5489 5490 5491
5515 5513 5511 5509 5508 5507 5506 5505 5504 5503 5502 5501 5500 5499 5499 5498 5498 5497 5497 5496 5496 5495 5494 5493 5492 5491 5489 5488 5488 5487 5486 5485 5485 5485 5484 5483 5482 5482 5482 5482 5482 5482 5483
5508 5506 5504 5503 5502 5501 5499 5499 5498 5497 5496 5495 5494 5494 5493 5492 5491 5491 5490 5490 5489 5489 5487 5486 5485 5484 5482 5481 5480 5479 5479 5478 5478 5477 5477 5476 5476 5476 5476 5476 5476 5476 5477
5502 5500 5498 5497 5496 5495 5493 5492 5491 5491 5490 5489 5489 5488 5487 5487 5486 5485 5484 5484 5483 5482 5481 5480 5478 5477 5476 5474 5473 5472 5472 5471 5471 5470 5470 5470 5470 5470 5470 5470 5470 5470 5471
5495 5494 5492 5491 5490 5489 5487 5486 5485 5485 5484 5484 5483 5483 5482 5482 5481 5480 5479 5477 5476 5475 5474 5472 5471 5470 5469 5468 5467 5466 5465 5465 5465 5465 5464 5464 5464 5464 5464 5464 5465 5465 5465